一网星座-0056星 (ONEWEB-0056 )

导读 | 豆包AI

ONEWEB-0056是英国OneWeb卫星互联网星座的一颗低轨卫星,于2020年2月6日发射入轨。OneWeb是由英国政府参股的全球卫星通信项目,计划部署648颗卫星构建全球高速互联网覆盖,旨在为偏远地区、地面网络受损场景提供稳定连接服务。ONEWEB-0056作为星座组网的组成卫星,支撑OneWeb为政府及企业客户提供安全可靠的卫星通信服务,助力全球网络覆盖建设。

Basic Information
目录编号:
45159
目录名称:
ONEWEB-0056
国际标识:
2020-008AE
轨道中心:
EARTH
卫星名称:
一网星座-0056星
卫星全名:
一网星座-0056星 (ONEWEB-0056 )
卫星状态:
在轨 (已飞行2228 天)
发射日期:
2020-02-06 UTC
国别 :
英国 (GB)
星等 :
--
Orbit Information
数据来源 国际轨道数据 AOE轨道数据
星历时间 2026-03-14T06:07:58+0800
9小时前
查看轨道信息
2026-03-11T15:00:00+0800
3天前
查看轨道信息
半长轴 7599.845km 7599.845km
偏心率 0.0001859 0.0000974
轨道倾角 87.879° 87.884°
近地点辐角 79.260° 44.533°
升交点赤经 55.226° 55.754°
平近点角 280.874° 153.527°
近地点 1220.295km 1220.967km
远地点 1223.121km 1222.449km
周期 109.892分钟 109.892分钟
每日圈数 13.103752 13.103753
Detailed Information
平衡模式:
三轴稳定
覆盖范围:
全球
运营商:
一网卫星公司
运营商所在国:
英国
制造商(研发单位):
一网卫星公司
制造商所在国:
英国
使用方式:
暂无
Satellite Introduction
OneWeb卫星网络由648颗重约125公斤的微型卫星组成,运行在1200公里的轨道上。 每颗卫星都能够提供至少每秒8千兆位的吞吐量,以使用其高吞吐量的Ku频段有效载荷为家庭和移动平台提供互联网接入。该卫星仍在工作。
2D Orbit Map
3D Orbit Map
Orbit Altitude Analysis Chart
Orbit Inclination Analysis Chart
Orbit Comprehensive Analysis Chart
View Comprehensive Chart